Wind_Speed
6 6 5 5 5 6 6 6 7 6 6 4 4 4 4 4 3 2 3 4 3 3 3 2 2 3 2 4 4 4 3 3 3 3 5 5 2 1 1 1 1 1 1 1 1 2 3 4 5 6 6 7 7 7 6 5 4 3 3 2 1 1 1 2 3 3 4 5 5 6 6 7 8 8
7 6 5 5 5 6 6 6 7 6 5 5 5 5 6 6 6 4 2 3 3 3 4 3 2 2 2 3 4 4 4 4 4 5 6 6 4 3 3 3 2 2 2 2 2 2 3 3 4 4 4 5 5 5 5 5 4 3 2 1 0 1 1 1 2 3 4 5 5 6 7 8 8 9
8 7 5 5 5 6 7 7 7 7 6 6 5 7 7 6 7 6 3 3 3 3 4 4 3 3 4 4 5 5 5 5 6 7 7 7 5 5 5 4 4 3 3 3 4 4 4 4 5 5 5 5 4 4 5 5 4 3 3 2 1 1 2 2 3 3 4 4 5 6 7 8 9 9
9 8 7 7 7 7 8 9 9 8 8 7 6 7 6 6 6 7 5 4 4 3 4 5 5 4 5 6 6 6 7 7 8 9 9 8 7 7 7 6 6 5 4 5 5 5 6 6 6 6 6 6 5 5 5 5 5 5 4 4 3 3 3 3 3 4 4 5 5 5 6 7 8 9
10 10 9 8 8 9 9 10 10 10 9 8 6 6 6 5 5 6 6 5 5 5 5 6 6 5 5 6 7 7 8 9 9 9 9 9 9 8 8 8 8 6 5 5 7 7 7 7 7 7 7 7 6 6 6 6 6 6 6 6 6 5 5 5 5 5 5 5 6 6 6 7 7 8
12 12 10 9 9 10 10 11 11 11 10 8 6 6 7 7 7 7 7 6 6 6 6 6 7 7 6 7 8 9 9 9 9 10 9 9 10 9 9 9 9 8 6 6 7 8 8 8 8 7 7 7 6 6 7 7 7 7 7 8 8 8 7 7 7 7 7 7 7 7 7 7 8 8
13 13 12 11 11 11 12 11 11 11 11 9 8 8 8 8 9 9 8 7 7 7 7 7 8 7 7 8 9 9 10 10 10 11 11 11 11 10 9 10 10 10 9 8 8 9 9 9 9 9 8 8 7 7 7 7 8 8 8 8 9 9 9 9 8 8 9 9 9 9 9 9 9 9
14 14 14 13 12 12 13 12 11 13 13 12 11 12 11 10 11 10 9 8 8 8 10 11 9 7 7 8 9 9 10 11 12 13 13 13 12 11 10 11 12 12 11 11 11 11 11 10 10 9 9 9 8 8 8 8 9 9 9 9 9 10 10 10 10 10 10 10 10 11 11 11 11 11
16 15 14 14 13 13 14 14 15 16 15 14 13 14 14 14 13 11 11 11 11 10 11 12 10 9 9 10 10 10 10 11 13 14 16 16 14 12 11 12 14 14 14 13 13 13 12 11 11 10 10 10 9 9 9 9 10 10 10 10 10 10 11 11 12 12 12 11 11 12 12 12 13 13
16 15 15 15 15 14 14 16 17 17 17 17 16 16 16 16 15 15 14 14 13 12 13 12 11 11 12 12 12 12 11 11 13 14 16 18 18 15 13 13 15 16 17 17 16 15 14 13 12 11 11 10 10 10 10 10 11 11 11 11 11 11 12 12 13 13 13 13 13 13 13 14 14 14
15 15 15 15 15 15 15 15 16 17 18 17 17 17 17 16 16 16 16 15 14 14 14 14 14 14 14 14 14 14 13 13 13 14 16 18 20 19 17 16 16 17 19 19 18 17 15 14 13 13 12 12 12 12 12 12 12 13 13 13 13 13 13 13 13 14 14 15 15 15 15 15 15 16
16 15 15 15 15 15 15 15 15 16 16 17 16 16 16 15 14 15 15 15 15 15 15 15 15 15 15 15 15 15 15 15 15 17 18 18 20 22 21 19 18 18 19 20 19 18 17 16 15 14 14 14 15 15 15 14 15 15 14 14 14 14 14 15 15 15 15 15 15 16 17 17 17 17
16 16 15 16 16 16 16 15 14 14 15 16 15 15 15 14 14 15 15 15 15 15 15 14 15 15 15 15 16 16 16 16 16 18 19 19 20 22 22 21 20 20 21 21 20 19 19 18 17 16 15 16 17 17 17 17 17 16 16 15 15 16 16 16 16 16 16 16 16 16 17 18 18 19
15 15 15 16 17 17 17 16 15 15 15 15 14 14 15 15 16 16 16 16 16 16 16 15 15 15 15 16 17 16 16 17 17 18 20 20 20 22 23 21 20 21 23 23 21 19 20 20 19 18 17 18 19 18 18 19 19 18 17 17 17 17 17 17 18 18 18 18 17 17 17 18 18 19
15 14 14 15 16 17 17 16 16 16 16 16 15 15 15 15 16 17 17 17 18 18 18 17 17 17 16 17 18 18 18 19 19 19 19 19 20 21 22 22 21 22 23 24 23 21 21 21 21 20 20 19 19 19 19 20 20 19 18 18 18 18 18 18 18 19 19 19 19 19 19 19 18 19
14 14 14 15 15 16 17 17 17 17 17 16 16 16 15 15 16 17 17 17 18 19 19 19 18 18 18 18 19 19 20 20 20 20 20 20 21 21 22 22 23 23 25 26 25 24 24 24 23 22 21 21 20 20 19 20 21 20 19 19 19 19 20 20 19 19 20 20 21 21 21 21 20 20
14 14 14 15 15 16 16 16 16 16 16 16 16 16 15 15 15 16 17 17 19 20 20 19 18 18 19 19 19 21 21 21 21 22 22 22 22 23 24 24 24 25 27 27 27 27 26 26 25 23 23 23 22 21 21 21 22 22 21 20 20 21 21 21 21 21 21 21 21 22 22 22 22 21
15 14 15 15 15 15 16 15 15 15 14 14 15 16 16 16 16 18 18 19 19 20 20 20 19 18 19 18 18 20 21 21 22 23 23 22 23 24 25 25 25 27 28 28 29 29 28 27 27 25 25 25 24 24 24 23 23 23 23 23 23 23 23 23 23 23 22 22 22 22 22 22 22 22
17 16 16 16 16 16 16 16 16 16 16 16 16 17 18 19 19 19 19 19 19 19 19 19 18 19 19 19 19 20 21 22 23 24 24 24 26 26 25 25 26 28 29 30 31 30 28 29 29 28 27 28 28 27 26 26 25 26 26 26 27 27 26 25 25 25 25 24 23 23 23 23 23 23
21 20 18 18 17 18 18 19 19 19 19 18 18 19 20 21 21 21 21 20 20 20 20 19 19 20 20 20 20 21 22 23 23 24 23 24 27 28 27 26 26 28 30 31 32 31 30 31 31 30 30 30 30 29 29 28 28 28 28 28 28 28 27 26 25 26 26 25 25 24 23 23 23 23
23 22 20 18 18 19 20 21 21 21 21 21 21 21 21 21 22 22 22 22 21 22 22 22 22 22 22 21 21 21 23 23 24 24 23 24 27 29 28 27 27 29 31 31 31 32 32 32 32 32 33 32 32 31 31 31 31 31 30 29 29 29 30 29 27 27 27 26 25 24 23 22 22 22
23 23 21 19 19 20 21 21 22 22 22 22 22 22 20 20 21 22 22 22 22 23 23 23 24 25 25 25 24 23 24 24 25 25 25 24 27 29 29 29 29 31 32 31 31 33 33 33 33 33 33 34 33 33 32 31 32 32 30 30 30 30 30 31 30 28 27 26 25 23 22 21 21 20
23 23 21 20 20 21 21 21 22 23 23 23 23 22 21 20 21 21 21 22 22 23 24 25 26 28 29 29 28 27 27 27 26 27 27 27 27 29 29 29 30 32 33 31 33 35 34 34 34 34 34 34 33 32 31 31 31 30 31 32 31 32 33 34 33 29 26 25 24 23 22 21 20 20
23 22 22 22 22 22 22 22 22 22 22 23 23 23 23 22 22 22 22 23 24 25 26 26 28 29 31 32 33 33 32 31 29 29 29 29 29 29 30 30 31 33 33 31 33 35 35 35 35 35 35 34 31 30 31 31 31 30 32 33 33 33 34 33 32 30 28 26 25 24 23 22 21 20
23 22 23 23 24 24 23 23 23 23 23 23 24 24 24 24 24 24 25 26 27 28 29 29 30 31 32 33 35 36 36 35 33 31 31 31 30 30 31 32 32 33 33 32 33 34 35 36 36 36 36 34 31 30 30 31 32 32 34 34 32 32 33 31 29 30 30 28 27 26 24 23 22 21
25 25 26 27 29 29 28 28 28 28 27 27 27 28 28 27 28 28 28 28 29 30 31 32 32 32 33 33 34 35 36 36 35 34 33 32 32 32 32 32 32 33 33 32 32 32 34 36 36 37 36 33 30 30 29 29 30 33 34 34 31 32 34 33 29 29 30 29 29 28 27 26 25 24
26 26 25 28 31 33 33 32 32 31 30 30 31 32 32 32 32 31 31 30 31 32 32 32 32 33 33 32 31 32 33 34 34 34 34 33 33 33 32 31 32 32 31 30 30 30 31 32 33 33 33 31 30 31 31 31 32 33 34 34 32 32 34 33 30 29 30 30 30 30 29 28 27 26
24 24 22 22 24 24 24 26 27 27 28 30 31 32 34 35 36 35 34 33 32 32 31 31 32 32 32 31 29 29 30 31 32 33 33 34 33 32 31 30 31 31 29 28 28 27 26 27 29 28 27 26 27 29 30 31 32 32 32 33 33 33 33 32 30 30 30 29 29 29 28 27 27 27
23 22 21 20 20 20 19 20 21 22 24 24 25 25 27 30 32 30 28 27 28 28 28 29 28 28 28 27 27 27 27 28 30 30 31 31 31 30 30 30 30 30 29 27 26 25 23 22 23 24 23 23 24 26 28 29 30 31 33 34 36 35 33 29 26 27 27 27 29 29 28 28 28 29
19 17 16 16 17 18 18 18 19 20 20 20 20 20 19 19 20 20 20 21 20 20 20 20 20 20 20 21 22 22 23 24 25 27 27 28 28 29 29 29 29 29 30 29 27 25 24 22 21 22 23 23 24 25 26 28 29 29 30 31 32 33 31 25 24 26 27 28 29 31 31 32 32 32
13 10 9 10 11 12 12 13 14 16 17 18 19 19 17 15 15 15 15 14 13 11 11 12 13 14 15 15 16 17 17 18 19 21 22 24 25 26 27 27 27 27 28 29 27 26 26 24 22 22 22 22 22 22 23 25 25 24 24 24 24 25 24 23 25 28 29 29 30 31 32 32 32 32
7 7 8 8 9 8 8 8 10 12 12 13 13 12 12 12 12 11 9 8 8 9 11 12 12 12 13 13 14 14 14 15 15 16 17 19 20 21 21 22 22 22 22 23 24 25 25 24 23 23 23 22 22 21 21 21 21 21 22 23 24 24 25 26 29 31 32 31 30 29 30 30 31 31
7 8 9 8 8 7 6 6 7 8 8 8 8 9 9 10 11 11 9 7 8 10 11 12 12 12 13 13 13 14 14 15 15 15 16 17 17 18 17 17 17 17 18 19 20 22 22 22 22 23 23 23 23 23 21 20 21 23 24 25 25 26 27 28 30 31 30 29 28 29 29 30 31 33
6 7 8 8 8 7 6 6 6 7 8 8 9 9 9 10 11 11 11 9 9 11 12 13 13 13 14 14 14 14 14 14 14 15 15 16 16 17 17 16 17 18 18 19 20 20 19 19 20 21 21 21 22 22 21 21 21 22 23 23 23 24 25 27 28 28 29 30 30 30 30 31 31 31
6 7 8 8 8 8 8 8 9 9 10 10 11 12 12 12 12 13 13 14 15 16 17 18 18 18 17 17 17 17 17 16 16 16 16 17 17 17 17 17 18 19 19 20 21 20 19 18 19 20 21 21 21 20 21 21 21 21 22 22 22 23 24 25 26 28 30 31 30 30 29 29 28 28
7 8 8 9 9 9 10 10 10 10 10 11 12 13 14 14 14 14 14 15 17 18 19 20 21 21 21 21 21 21 20 20 20 20 20 20 19 19 19 19 20 20 20 19 20 20 20 19 19 20 21 22 21 20 20 20 21 23 24 25 25 26 27 27 28 29 29 29 28 27 26 26 26 27
8 9 10 10 11 12 12 12 12 11 11 12 13 14 15 15 16 16 16 17 17 18 18 19 20 21 22 23 23 23 23 23 22 22 22 22 22 21 21 21 22 22 22 21 20 20 20 20 20 21 22 22 21 22 23 25 27 28 28 28 28 28 29 29 29 29 28 28 27 26 25 26 27 28
9 11 12 12 13 13 14 14 14 14 15 15 16 16 17 18 18 19 19 20 20 21 21 21 22 23 23 23 23 24 24 24 24 24 23 23 23 23 23 23 23 23 23 23 23 23 23 23 23 24 24 25 26 27 28 29 30 31 30 28 26 26 27 27 28 28 28 28 28 28 28 29 30 30
12 13 13 14 14 15 15 16 17 18 19 19 20 20 20 21 21 22 22 23 23 24 24 24 25 25 25 25 25 25 25 25 25 25 25 24 24 24 24 24 25 24 24 24 24 24 25 25 25 25 25 26 27 27 27 27 27 28 28 27 26 26 26 26 27 28 29 29 30 31 31 32 33 33
14 15 15 15 16 16 17 18 19 20 21 21 21 22 22 23 23 23 23 23 24 24 25 26 26 27 27 27 27 27 27 27 27 27 26 26 25 25 24 24 24 25 25 25 25 25 25 25 26 26 26 27 27 27 27 28 28 28 29 29 29 28 28 28 28 29 30 31 31 32 32 33 33 33
14 15 15 16 16 17 17 17 18 19 20 20 20 21 21 21 22 22 22 22 23 23 24 24 25 26 27 26 26 27 27 27 28 28 27 27 27 26 26 26 26 26 26 26 26 26 26 26 26 27 27 28 28 28 29 29 29 30 31 31 30 30 29 29 29 29 30 31 31 31 32 32 33 33
13 13 14 15 16 16 16 16 17 18 19 20 21 21 21 21 22 22 23 23 23 23 24 24 24 25 25 26 26 26 27 27 27 27 27 26 26 27 27 26 26 27 27 27 27 27 27 28 28 28 29 29 29 29 29 30 30 31 31 31 31 31 31 30 30 30 31 31 32 32 32 32 33 33
14 13 14 15 14 14 14 16 17 18 19 20 21 22 22 23 23 24 25 25 25 25 25 25 25 25 24 24 24 25 26 27 27 27 27 26 26 26 26 26 26 26 27 27 27 27 28 28 28 29 29 29 29 29 29 30 30 30 30 30 31 31 31 31 31 31 32 32 32 32 32 33 33 33
15 15 15 15 14 14 15 16 17 18 19 20 21 23 24 25 26 26 26 27 27 27 27 27 26 26 25 24 23 23 23 24 25 26 26 26 25 25 25 26 26 26 26 26 26 26 26 27 27 28 28 28 28 28 29 29 29 29 29 29 29 29 29 30 30 31 32 32 32 32 32 33 33 33
16 16 15 14 14 14 16 17 18 19 20 21 23 24 25 26 27 28 29 29 29 28 27 26 25 25 25 24 23 23 22 22 23 23 23 23 23 23 24 24 24 25 25 25 25 25 25 26 26 27 28 28 28 28 28 28 29 29 29 29 29 29 29 29 30 30 31 31 32 32 32 33 33 33
Wind_Direction
248 246 244 245 253 262 272 283 289 290 291 296 304 315 322 324 331 325 297 294 291 280 284 305 334 331 281 237 238 250 253 237 228 247 267 269 280 20 353 282 257 264 282 325 349 5 10 9 11 13 15 17 22 28 35 41 48 56 66 78 89 109 210 218 216 215 213 212 213 215 218 221 225 228
252 253 251 251 255 259 267 277 280 282 289 296 308 319 318 322 337 340 296 280 289 285 283 285 288 299 283 248 242 253 255 241 232 239 252 260 269 287 295 292 278 264 271 279 293 309 318 325 332 339 350 357 2 7 13 18 24 26 31 43 109 170 190 206 222 233 238 237 236 234 233 231 228 228
256 258 257 251 249 255 266 274 275 277 286 294 306 318 319 321 333 338 317 270 273 288 293 288 275 267 269 256 240 246 253 247 240 242 246 251 255 257 265 281 286 279 275 278 283 291 296 301 304 307 310 318 330 341 348 351 354 356 355 347 322 274 241 225 217 218 225 232 237 242 244 245 245 244
258 257 254 251 249 255 264 271 273 277 284 291 302 315 316 316 325 331 322 285 270 284 291 286 282 266 255 248 237 240 249 248 246 243 240 245 253 254 255 262 272 282 288 289 286 286 289 293 297 299 298 297 300 307 317 325 329 330 327 321 311 297 282 265 249 239 234 233 235 238 241 244 246 248
257 254 252 253 256 260 266 272 277 280 284 291 301 306 301 298 305 309 302 288 272 272 275 277 281 275 261 254 247 245 244 243 247 248 244 245 250 254 257 258 260 268 284 292 288 284 285 288 292 297 299 296 294 294 297 303 310 315 317 314 309 301 291 281 270 260 253 250 249 249 250 251 252 253
257 257 257 257 258 260 263 267 271 275 279 285 286 282 278 279 280 277 277 280 272 265 267 274 277 277 272 266 264 263 256 247 244 245 248 252 253 254 256 256 257 261 269 277 280 280 282 284 288 293 296 295 292 289 289 292 296 300 302 303 304 302 298 291 283 274 266 262 259 259 259 260 261 263
260 262 264 261 258 258 259 262 270 276 277 278 276 269 266 271 275 273 275 280 279 276 279 278 271 268 268 264 265 268 266 262 254 246 246 249 250 252 255 255 253 254 259 264 267 271 274 278 283 288 291 292 291 287 285 286 289 291 293 293 293 292 291 289 286 281 276 271 267 265 263 263 265 266
254 259 260 261 263 269 274 277 282 282 278 279 283 282 277 272 268 268 271 271 271 274 278 277 275 277 277 272 268 264 262 263 260 256 256 256 251 247 254 260 255 249 252 257 259 262 264 267 273 279 282 284 287 286 284 285 286 288 288 288 288 286 284 281 278 277 276 273 271 268 267 266 267 267
248 254 259 264 271 276 279 280 278 277 274 273 274 274 273 271 267 266 266 262 261 262 264 271 279 285 283 280 278 273 266 263 262 261 263 265 260 251 251 258 257 252 252 254 255 258 260 262 265 268 273 276 280 281 279 280 282 283 284 285 285 286 285 281 277 273 271 269 268 267 266 266 266 266
252 257 262 266 270 270 268 270 271 273 274 273 269 266 268 269 267 266 267 265 265 265 265 270 276 276 273 272 274 275 273 270 269 267 266 267 267 262 254 249 248 250 253 255 255 256 258 260 261 263 267 270 274 277 276 276 275 277 279 280 280 282 283 284 282 278 274 271 269 267 265 264 263 263
254 256 259 262 266 268 267 270 274 277 278 276 273 273 277 275 268 267 273 276 278 279 277 275 271 268 268 268 269 271 272 273 274 273 270 267 268 267 261 253 247 248 252 255 256 257 260 263 264 266 269 271 274 276 278 278 276 275 277 278 278 277 277 279 281 280 278 275 271 268 266 264 263 263
259 261 262 263 265 267 268 272 275 276 277 275 273 276 280 279 270 268 273 276 278 280 278 273 267 266 268 268 268 268 270 271 272 272 271 269 268 268 266 260 254 251 250 252 254 257 261 263 263 265 268 271 274 277 279 280 278 276 277 278 280 279 276 274 274 276 278 277 274 271 268 266 265 263
265 266 267 266 267 267 269 271 269 267 267 269 272 275 275 272 269 268 267 268 270 272 271 268 264 264 266 267 266 266 268 269 269 270 272 272 270 269 268 264 258 253 252 252 253 256 260 262 262 263 264 265 267 272 275 277 277 277 277 279 282 281 278 274 271 271 272 274 274 273 271 270 268 267
266 268 267 267 267 267 269 271 268 264 264 266 269 271 267 265 266 267 267 265 264 264 264 263 262 261 261 261 262 263 265 267 267 268 271 273 272 271 271 268 261 254 254 256 257 258 259 262 264 264 262 259 259 263 268 271 273 275 278 280 281 282 280 278 275 273 272 272 272 272 272 272 270 270
268 271 271 268 265 264 264 266 266 267 268 268 266 267 266 261 261 264 266 266 264 263 262 261 260 260 258 257 260 262 262 263 265 267 270 272 272 272 272 271 266 259 256 257 260 260 259 259 261 261 259 259 258 259 262 265 267 270 274 277 278 279 279 278 276 273 271 271 271 272 272 271 270 269
268 270 272 271 268 265 263 264 266 268 270 267 264 266 267 261 256 259 264 266 267 266 263 262 262 260 258 257 259 261 261 264 267 269 270 271 272 272 271 270 269 265 260 258 257 257 257 258 259 260 260 261 261 260 259 261 263 265 268 271 274 275 276 276 275 273 270 268 267 268 269 269 269 268
262 265 269 270 269 267 264 263 266 269 271 268 262 262 264 263 260 261 264 266 268 268 266 264 263 261 260 259 259 261 263 266 268 269 270 272 273 273 271 270 268 266 263 261 259 257 257 258 260 262 263 263 263 262 261 262 263 263 264 267 268 271 273 274 272 270 269 268 266 264 264 265 265 266
258 261 263 264 265 265 264 265 267 270 271 270 265 260 260 260 261 263 265 267 269 269 266 264 262 261 261 261 261 264 267 268 269 270 270 270 269 268 268 268 267 266 266 264 263 261 260 260 260 261 261 261 261 262 263 264 265 265 265 266 267 269 271 271 271 270 269 269 268 267 266 264 263 263
250 250 252 255 259 262 265 266 266 267 266 266 265 263 260 259 259 260 263 266 269 268 266 263 260 260 262 262 263 265 268 269 271 273 273 272 271 268 265 263 264 266 266 265 264 264 263 263 264 263 262 260 261 263 264 265 266 266 267 269 269 270 270 269 269 270 269 269 270 270 270 268 266 264
244 244 246 250 256 261 263 264 264 263 262 262 263 264 263 262 261 260 261 263 266 266 264 262 260 261 262 263 264 265 267 269 271 272 273 274 274 271 266 263 262 263 264 263 263 263 262 262 264 265 263 261 261 262 264 265 267 268 268 269 270 270 270 270 270 271 271 270 270 270 270 269 267 265
249 251 250 249 252 256 258 260 261 260 259 260 262 263 262 261 260 261 262 262 262 262 261 261 263 265 266 267 267 268 270 271 272 274 275 274 274 274 271 268 265 263 263 264 264 263 262 261 261 261 261 262 262 262 263 266 269 269 268 269 271 270 268 267 267 270 272 271 268 268 268 266 265 264
252 255 253 249 250 252 253 256 259 259 260 260 261 262 260 259 259 260 262 263 263 263 263 264 266 268 269 269 269 269 271 271 273 276 276 274 273 274 274 271 268 265 264 265 265 265 265 264 263 260 258 259 260 261 264 266 268 269 269 269 271 271 269 267 265 266 267 267 264 262 263 264 263 262
251 253 253 250 249 249 250 252 256 259 262 263 262 261 260 261 261 260 260 261 264 266 269 271 272 274 274 273 272 269 268 269 270 274 277 276 274 275 275 274 271 269 266 263 264 266 266 266 266 264 262 260 260 261 264 266 267 267 267 267 268 271 270 265 262 262 262 259 258 256 256 259 261 262
248 251 252 251 249 248 248 250 253 258 262 264 264 262 262 262 261 259 259 261 264 268 270 272 275 276 277 277 275 272 268 266 267 270 273 275 274 274 274 274 274 273 272 268 265 266 267 266 265 264 264 265 265 265 264 266 267 266 265 265 267 270 267 258 253 255 257 254 253 253 253 255 257 260
249 250 251 249 247 246 247 250 254 258 260 263 264 265 264 263 262 261 262 265 268 270 271 272 274 276 277 277 276 273 268 265 265 267 270 272 273 272 272 273 273 274 274 272 268 266 267 268 267 265 264 264 266 266 263 263 265 267 268 268 268 268 266 259 251 249 249 248 249 251 253 255 257 258
256 256 256 255 254 252 252 256 259 259 259 260 262 264 264 264 265 265 266 269 272 275 275 274 274 276 278 278 276 271 267 264 265 266 268 270 271 272 272 272 272 272 272 272 272 271 271 270 268 266 262 260 260 262 261 261 263 266 268 270 270 266 262 257 251 248 248 249 250 251 253 256 258 259
260 261 261 263 264 260 258 259 260 258 258 258 260 262 264 264 265 265 266 269 274 278 277 275 274 276 278 279 277 272 266 264 264 265 268 269 270 271 271 270 270 271 271 272 272 273 273 273 271 267 261 258 256 255 255 255 257 261 264 267 271 270 262 254 249 249 251 253 252 252 253 254 257 260
264 266 266 271 274 269 263 260 257 256 257 260 263 264 265 264 264 265 267 270 273 274 272 271 273 275 276 277 277 273 268 265 264 265 267 269 269 269 268 268 268 269 270 271 271 272 273 272 270 266 261 257 254 253 254 255 256 260 263 266 270 268 257 249 247 249 252 254 256 256 255 255 258 262
267 270 271 273 276 276 272 267 263 261 263 266 269 271 270 266 263 262 264 268 270 270 270 271 273 275 275 276 277 276 272 270 268 267 267 268 269 269 268 267 266 266 268 268 269 270 270 267 263 260 257 256 255 257 262 264 264 266 268 270 271 262 248 245 253 260 264 267 265 263 263 262 262 264
265 269 272 274 277 279 277 273 271 271 270 272 275 278 277 271 266 264 265 269 271 275 279 280 280 281 281 281 280 279 276 273 270 268 267 267 268 269 269 268 267 266 266 266 266 265 262 260 259 258 259 263 265 266 269 270 271 272 271 269 266 256 248 251 263 268 271 270 266 265 266 265 264 264
258 263 273 285 294 295 291 287 285 282 280 279 279 277 274 272 271 272 273 276 282 293 303 305 302 299 298 296 294 292 288 284 280 277 275 273 273 273 274 274 273 270 266 264 263 262 261 260 261 262 264 266 268 270 273 275 274 270 266 265 263 259 259 266 271 271 270 268 265 265 265 264 264 263
249 258 272 288 304 311 310 305 298 291 288 285 281 278 278 278 275 272 273 287 306 317 320 320 318 316 314 312 310 309 307 304 301 297 294 291 288 285 284 284 285 284 277 268 264 264 263 262 262 264 266 269 271 272 275 276 274 267 263 265 267 267 266 266 266 266 265 264 262 263 265 267 270 272
252 259 267 278 293 304 310 308 298 290 287 283 280 282 285 284 281 278 279 295 317 322 318 314 312 310 310 311 311 310 310 308 307 306 305 303 301 297 294 292 290 290 286 277 271 269 269 268 267 268 269 271 273 274 274 275 274 270 267 265 265 265 264 263 263 263 264 265 264 265 268 272 276 278
266 268 270 273 278 284 289 289 284 281 280 280 280 280 280 278 279 282 284 290 298 300 299 296 293 291 291 293 295 296 297 297 299 301 302 302 302 301 298 291 284 280 279 277 275 274 276 278 278 278 279 279 279 279 278 276 272 268 266 265 264 264 263 262 261 262 264 265 266 269 272 275 278 281
294 286 284 282 278 276 274 272 272 275 281 287 288 287 285 283 283 284 284 282 283 284 285 286 288 289 289 288 287 287 287 287 287 288 289 290 292 294 294 291 286 283 280 278 278 278 281 283 284 284 284 284 281 277 274 271 267 266 266 266 267 267 266 266 265 266 268 270 272 276 280 283 285 286
296 290 289 287 283 279 276 274 275 278 285 293 295 294 293 292 292 291 289 285 284 284 284 285 287 289 290 290 290 289 289 288 287 286 285 284 284 284 285 286 285 283 279 277 278 279 280 282 283 284 285 283 280 277 275 274 274 274 275 275 276 276 276 276 276 278 279 281 283 284 285 285 284 283
292 291 291 289 289 290 290 290 292 292 290 288 287 288 289 291 290 288 286 286 286 285 285 284 284 284 286 286 286 287 287 287 287 286 286 285 285 284 283 283 283 284 284 283 282 280 278 276 274 274 274 274 274 275 279 281 281 281 282 284 285 284 283 283 283 284 285 286 286 285 282 279 277 275
290 291 292 294 297 299 301 301 302 299 295 291 289 288 288 288 288 287 285 284 284 283 282 282 281 281 282 282 282 283 283 283 283 284 285 286 287 287 287 286 286 286 287 288 287 286 285 283 281 278 276 275 275 276 279 281 283 283 283 284 284 283 283 282 282 282 282 282 281 281 279 278 277 276
289 288 289 292 295 296 297 297 295 294 293 292 292 291 291 290 289 289 288 288 287 286 285 284 283 283 282 282 281 281 281 281 281 281 282 283 285 286 287 288 288 288 289 289 289 289 289 288 288 287 285 283 283 283 283 284 285 285 286 285 284 283 283 282 283 283 283 282 282 282 282 283 283 284
288 287 287 289 290 291 291 292 292 292 292 292 292 292 292 293 293 294 294 294 293 293 292 291 290 289 288 287 286 285 284 284 283 282 281 281 281 281 282 283 285 286 286 287 287 287 287 287 287 286 285 284 284 285 285 285 285 285 286 287 287 287 286 285 284 284 283 283 283 284 284 285 286 286
292 293 297 299 301 303 304 304 303 301 300 300 301 302 302 304 305 305 306 305 304 303 301 299 298 296 295 294 292 290 288 287 286 285 285 284 283 282 282 281 282 282 283 285 285 285 285 285 284 283 283 283 283 283 283 283 284 284 286 287 287 288 287 286 284 283 283 283 283 284 284 284 284 284
299 304 308 310 312 314 314 311 308 307 308 310 313 315 316 318 318 318 318 317 316 314 311 308 305 303 301 299 297 294 292 290 289 288 287 287 287 286 286 285 285 285 285 286 286 287 287 286 285 285 285 284 284 283 283 283 284 284 285 286 287 288 288 288 288 287 286 286 286 286 285 285 285 284
301 306 309 312 315 315 312 308 307 309 312 313 315 317 319 319 320 320 319 318 318 316 315 313 311 308 305 302 300 297 294 293 292 291 290 289 289 289 288 288 288 288 288 288 288 289 289 289 288 288 287 286 286 285 285 285 285 285 285 285 286 286 287 288 288 287 287 287 286 286 286 285 284 284
303 306 309 312 313 309 306 306 307 309 311 312 313 315 315 316 317 317 317 316 316 315 314 313 312 310 308 306 303 300 298 296 295 294 293 293 293 292 291 290 289 288 288 288 288 288 289 289 289 288 287 287 287 287 287 287 286 286 286 286 285 284 284 284 284 285 285 286 286 285 285 284 284 284
303 305 306 307 305 302 299 300 302 304 307 309 309 310 311 313 314 314 315 314 314 313 313 312 310 308 306 306 305 305 303 302 301 300 300 299 298 297 295 294 292 290 289 288 287 287 286 286 286 287 287 287 287 287 287 287 286 286 286 286 285 284 284 283 283 283 284 285 285 286 287 287 287 288
Height
3219 3219 3219 3219 3219 3219 3219 3218 3218 3217 3217 3217 3217 3216 3216 3215 3214 3214 3214 3214 3213 3213 3212 3211 3210 3210 3210 3210 3210 3210 3209 3209 3208 3208 3209 3209 3208 3208 3208 3208 3208 3207 3207 3206 3206 3205 3205 3205 3205 3204 3204 3203 3203 3202 3202 3201 3201 3200 3200 3200 3199 3199 3199 3199 3199 3199 3199 3199 3199 3199 3200 3200 3200 3200
3219 3218 3219 3219 3218 3218 3218 3217 3217 3216 3216 3216 3216 3216 3215 3215 3214 3214 3214 3213 3213 3213 3213 3212 3210 3210 3210 3210 3209 3209 3209 3208 3208 3208 3209 3209 3208 3208 3208 3208 3208 3207 3207 3206 3206 3205 3205 3205 3205 3205 3204 3204 3203 3202 3202 3202 3201 3201 3201 3200 3200 3200 3200 3199 3199 3199 3199 3199 3199 3199 3199 3199 3199 3199
3218 3218 3218 3218 3217 3217 3217 3216 3216 3215 3215 3215 3215 3215 3215 3214 3214 3214 3213 3213 3213 3212 3212 3211 3211 3210 3210 3209 3209 3208 3208 3208 3208 3208 3208 3208 3207 3207 3207 3207 3207 3207 3206 3206 3206 3205 3205 3205 3205 3205 3204 3204 3203 3203 3202 3202 3201 3201 3201 3200 3200 3200 3200 3200 3200 3199 3199 3199 3199 3199 3199 3199 3199 3199
3217 3216 3216 3216 3216 3216 3216 3215 3215 3214 3214 3215 3215 3215 3214 3214 3214 3214 3213 3213 3212 3212 3211 3211 3210 3210 3210 3209 3208 3208 3208 3208 3208 3208 3208 3207 3207 3207 3207 3207 3206 3206 3205 3205 3205 3205 3205 3205 3205 3204 3204 3204 3203 3203 3203 3202 3202 3201 3201 3201 3200 3200 3200 3200 3200 3199 3199 3199 3199 3199 3199 3199 3199 3199
3216 3215 3215 3215 3215 3215 3215 3214 3214 3213 3213 3214 3214 3214 3213 3213 3213 3212 3212 3212 3212 3211 3211 3210 3210 3210 3210 3209 3208 3208 3207 3207 3207 3207 3207 3206 3206 3206 3206 3206 3206 3205 3205 3204 3204 3204 3204 3204 3204 3204 3203 3203 3203 3203 3202 3202 3202 3201 3201 3201 3200 3200 3200 3199 3199 3199 3199 3199 3199 3198 3198 3198 3198 3198
3215 3214 3214 3215 3215 3215 3214 3213 3212 3212 3211 3212 3212 3212 3212 3212 3212 3211 3211 3211 3210 3210 3210 3210 3210 3209 3209 3209 3208 3208 3207 3207 3207 3206 3206 3206 3206 3206 3206 3205 3205 3205 3204 3204 3204 3204 3204 3203 3203 3203 3203 3202 3202 3202 3202 3201 3201 3201 3201 3200 3200 3200 3199 3199 3199 3199 3198 3198 3198 3198 3198 3197 3197 3197
3214 3213 3213 3214 3214 3213 3212 3212 3211 3211 3211 3210 3210 3210 3210 3210 3210 3210 3210 3210 3209 3209 3208 3208 3209 3208 3208 3208 3208 3207 3207 3206 3206 3205 3205 3205 3205 3205 3205 3204 3204 3204 3204 3203 3203 3203 3203 3203 3202 3202 3202 3201 3201 3201 3200 3200 3200 3200 3200 3199 3199 3199 3199 3198 3198 3198 3198 3197 3197 3197 3197 3197 3197 3197
3212 3212 3212 3212 3213 3213 3212 3212 3211 3211 3211 3211 3210 3210 3210 3209 3209 3208 3208 3208 3208 3207 3207 3207 3207 3206 3206 3206 3206 3206 3206 3205 3205 3205 3204 3204 3204 3204 3203 3203 3203 3203 3202 3202 3202 3202 3202 3202 3201 3201 3201 3200 3200 3199 3199 3199 3199 3199 3198 3198 3198 3198 3198 3197 3197 3197 3197 3196 3196 3196 3196 3196 3196 3196
3211 3211 3211 3211 3212 3212 3212 3211 3210 3210 3210 3209 3209 3209 3208 3208 3207 3206 3206 3206 3206 3206 3206 3206 3204 3204 3204 3204 3204 3204 3204 3204 3204 3204 3203 3203 3203 3203 3202 3202 3202 3202 3201 3201 3201 3201 3201 3200 3200 3200 3199 3199 3199 3198 3198 3198 3197 3197 3197 3197 3197 3196 3196 3196 3196 3195 3195 3195 3195 3195 3195 3195 3195 3195
3210 3210 3211 3210 3210 3210 3210 3208 3207 3207 3206 3206 3206 3206 3205 3205 3205 3205 3204 3204 3203 3203 3203 3203 3202 3202 3202 3202 3202 3202 3202 3202 3202 3202 3202 3201 3201 3201 3201 3201 3200 3200 3200 3200 3199 3199 3199 3199 3198 3198 3198 3198 3197 3197 3196 3196 3196 3196 3195 3195 3195 3195 3195 3194 3194 3194 3194 3193 3193 3193 3193 3193 3193 3193
3209 3209 3209 3208 3208 3208 3207 3206 3205 3204 3204 3204 3204 3204 3203 3203 3203 3202 3202 3201 3200 3200 3201 3200 3200 3200 3200 3200 3200 3200 3200 3200 3200 3200 3200 3199 3199 3199 3200 3200 3199 3199 3198 3198 3197 3197 3197 3197 3197 3197 3197 3196 3196 3195 3195 3194 3194 3194 3194 3193 3193 3193 3193 3193 3193 3192 3192 3192 3191 3191 3191 3190 3190 3190
3207 3207 3207 3207 3206 3206 3205 3204 3204 3203 3203 3202 3202 3201 3201 3201 3201 3200 3199 3199 3199 3199 3199 3199 3199 3199 3199 3199 3198 3198 3198 3198 3198 3197 3197 3197 3197 3196 3197 3198 3198 3197 3196 3195 3195 3196 3196 3196 3196 3196 3195 3195 3194 3193 3193 3193 3192 3192 3192 3191 3191 3191 3191 3191 3190 3190 3190 3190 3189 3189 3189 3188 3188 3188
3204 3204 3204 3204 3204 3204 3202 3202 3202 3201 3201 3200 3200 3199 3199 3199 3199 3199 3198 3198 3197 3197 3197 3198 3197 3197 3197 3197 3196 3196 3196 3195 3195 3195 3194 3195 3195 3194 3194 3195 3195 3195 3194 3193 3194 3194 3194 3194 3194 3194 3193 3193 3192 3192 3191 3191 3191 3190 3190 3189 3189 3189 3189 3188 3188 3188 3187 3187 3187 3187 3186 3186 3186 3186
3202 3201 3201 3201 3201 3201 3200 3200 3199 3199 3198 3198 3198 3197 3197 3197 3197 3197 3197 3197 3196 3196 3195 3195 3195 3195 3195 3194 3194 3193 3193 3193 3193 3192 3192 3192 3192 3191 3191 3191 3192 3192 3191 3191 3192 3192 3192 3191 3191 3191 3191 3191 3190 3190 3190 3189 3189 3189 3188 3188 3187 3187 3187 3186 3186 3186 3186 3185 3185 3184 3184 3184 3183 3183
3199 3199 3199 3198 3198 3198 3197 3197 3196 3196 3196 3196 3195 3195 3195 3195 3194 3194 3194 3194 3194 3194 3193 3193 3193 3193 3193 3192 3191 3191 3191 3190 3190 3190 3189 3189 3188 3188 3188 3188 3189 3189 3189 3189 3189 3189 3189 3189 3189 3189 3188 3188 3188 3188 3188 3187 3187 3187 3186 3186 3186 3185 3185 3184 3184 3184 3183 3183 3183 3182 3182 3181 3181 3180
3196 3196 3196 3196 3196 3195 3195 3194 3194 3194 3194 3193 3193 3193 3193 3192 3192 3192 3191 3191 3191 3191 3191 3191 3190 3190 3190 3190 3189 3189 3189 3189 3189 3188 3187 3186 3186 3185 3185 3185 3185 3185 3185 3185 3185 3186 3186 3186 3186 3186 3186 3186 3186 3186 3185 3185 3184 3184 3183 3183 3183 3183 3183 3182 3182 3181 3181 3181 3180 3180 3179 3179 3178 3178
3194 3194 3194 3194 3194 3193 3193 3192 3192 3192 3191 3191 3191 3190 3190 3190 3189 3189 3189 3189 3189 3189 3188 3188 3188 3188 3187 3188 3187 3187 3186 3187 3187 3186 3186 3185 3184 3183 3183 3183 3182 3182 3181 3181 3182 3182 3182 3182 3183 3183 3183 3183 3183 3183 3183 3182 3182 3181 3180 3180 3180 3180 3180 3179 3179 3178 3178 3178 3177 3177 3177 3177 3176 3175
3191 3191 3191 3191 3191 3191 3191 3191 3190 3190 3189 3188 3188 3188 3187 3187 3187 3187 3186 3186 3186 3186 3186 3186 3185 3185 3185 3185 3186 3185 3184 3184 3183 3183 3183 3183 3182 3181 3181 3181 3180 3179 3178 3178 3178 3178 3179 3179 3179 3180 3180 3180 3180 3179 3179 3179 3179 3178 3177 3177 3177 3176 3176 3176 3176 3175 3175 3175 3174 3174 3174 3174 3173 3173
3188 3187 3187 3188 3188 3188 3188 3188 3188 3187 3187 3186 3186 3185 3185 3185 3184 3184 3184 3184 3184 3184 3183 3183 3183 3183 3182 3183 3183 3182 3181 3180 3180 3179 3179 3179 3178 3177 3177 3177 3177 3176 3176 3175 3174 3175 3176 3176 3175 3176 3177 3176 3176 3176 3175 3175 3175 3174 3174 3174 3173 3173 3173 3172 3172 3172 3172 3171 3171 3171 3170 3170 3170 3170
3183 3183 3183 3184 3185 3185 3185 3185 3185 3184 3184 3183 3183 3183 3182 3182 3182 3181 3181 3181 3181 3180 3180 3180 3180 3180 3180 3180 3180 3179 3177 3177 3177 3176 3176 3176 3174 3174 3174 3174 3173 3173 3171 3171 3171 3171 3172 3172 3172 3172 3172 3172 3172 3172 3171 3171 3171 3171 3170 3170 3170 3170 3169 3169 3169 3168 3168 3168 3167 3167 3167 3166 3166 3166
3180 3180 3180 3181 3182 3182 3182 3182 3182 3181 3181 3181 3180 3180 3179 3179 3179 3179 3178 3178 3178 3177 3177 3177 3176 3176 3176 3177 3177 3176 3174 3174 3173 3173 3173 3172 3170 3170 3170 3171 3171 3169 3168 3168 3168 3167 3167 3168 3167 3168 3167 3167 3167 3167 3167 3167 3167 3167 3167 3166 3166 3166 3165 3165 3165 3165 3165 3165 3164 3163 3163 3162 3162 3162
3178 3178 3178 3179 3179 3179 3179 3179 3178 3178 3178 3177 3177 3177 3177 3176 3176 3176 3176 3175 3175 3174 3174 3174 3173 3173 3173 3173 3174 3173 3171 3170 3170 3169 3169 3169 3167 3166 3166 3166 3166 3165 3165 3166 3165 3163 3163 3163 3162 3163 3163 3162 3162 3163 3163 3163 3163 3163 3163 3163 3162 3162 3162 3162 3162 3161 3161 3161 3161 3160 3160 3159 3159 3158
3176 3175 3176 3176 3176 3176 3176 3176 3175 3175 3175 3174 3174 3174 3174 3174 3173 3173 3173 3173 3172 3172 3171 3171 3170 3169 3169 3169 3169 3169 3168 3167 3166 3166 3165 3164 3163 3162 3162 3161 3161 3161 3161 3162 3160 3158 3159 3159 3159 3159 3159 3158 3158 3159 3159 3159 3159 3159 3159 3158 3158 3158 3157 3156 3157 3157 3158 3158 3157 3157 3156 3156 3156 3155
3173 3173 3173 3173 3173 3172 3172 3172 3172 3172 3172 3171 3171 3171 3170 3171 3170 3170 3170 3170 3169 3169 3168 3167 3167 3166 3165 3164 3164 3164 3163 3162 3162 3162 3161 3160 3159 3159 3158 3157 3157 3156 3156 3157 3156 3154 3154 3154 3154 3154 3154 3154 3155 3156 3156 3155 3155 3155 3154 3154 3154 3154 3152 3150 3151 3153 3154 3154 3154 3153 3153 3152 3152 3152
3170 3170 3170 3169 3169 3169 3169 3169 3169 3169 3168 3168 3168 3167 3167 3167 3167 3167 3166 3166 3165 3165 3164 3164 3163 3162 3161 3160 3159 3159 3158 3157 3157 3157 3157 3156 3156 3155 3154 3153 3153 3152 3151 3152 3151 3150 3149 3149 3149 3149 3149 3149 3150 3151 3151 3152 3151 3150 3150 3150 3150 3151 3149 3147 3147 3148 3149 3149 3149 3149 3149 3148 3148 3148
3167 3167 3166 3166 3166 3165 3165 3165 3165 3165 3165 3164 3164 3164 3164 3163 3163 3163 3162 3162 3161 3161 3160 3159 3158 3157 3156 3155 3154 3153 3153 3152 3152 3152 3152 3152 3151 3150 3150 3149 3148 3148 3147 3147 3147 3146 3145 3144 3143 3143 3144 3145 3145 3145 3146 3148 3148 3147 3146 3146 3146 3146 3145 3144 3144 3144 3145 3145 3145 3145 3145 3145 3144 3144
3163 3163 3163 3163 3162 3160 3160 3160 3161 3161 3161 3160 3160 3160 3160 3159 3159 3158 3158 3157 3157 3156 3156 3155 3154 3153 3152 3151 3150 3149 3148 3148 3148 3147 3147 3147 3147 3146 3145 3145 3144 3143 3143 3143 3142 3142 3141 3140 3139 3138 3139 3140 3140 3141 3142 3143 3144 3144 3143 3142 3142 3141 3140 3138 3139 3141 3141 3141 3141 3140 3140 3140 3140 3140
3159 3159 3159 3159 3158 3156 3156 3157 3157 3157 3157 3156 3156 3156 3155 3154 3154 3153 3153 3152 3152 3152 3151 3150 3149 3148 3147 3147 3146 3145 3144 3144 3143 3143 3142 3142 3142 3142 3141 3141 3140 3139 3139 3139 3138 3138 3137 3136 3135 3136 3136 3136 3137 3138 3138 3138 3138 3139 3138 3137 3138 3138 3136 3134 3134 3135 3136 3136 3136 3136 3136 3136 3136 3136
3156 3156 3155 3155 3155 3154 3154 3154 3154 3153 3153 3153 3152 3152 3150 3149 3148 3148 3149 3148 3148 3147 3147 3146 3145 3144 3143 3142 3142 3141 3140 3140 3139 3139 3138 3138 3137 3137 3137 3137 3136 3136 3135 3135 3135 3134 3134 3133 3132 3132 3132 3132 3133 3133 3133 3132 3133 3133 3133 3132 3132 3133 3132 3130 3130 3131 3131 3132 3132 3132 3132 3132 3132 3132
3153 3153 3153 3153 3153 3152 3152 3151 3150 3150 3150 3149 3149 3148 3147 3146 3145 3145 3145 3145 3144 3143 3143 3142 3141 3140 3140 3139 3138 3137 3137 3136 3136 3135 3135 3134 3134 3133 3133 3133 3133 3132 3131 3131 3131 3131 3130 3130 3129 3129 3129 3129 3129 3129 3129 3128 3128 3128 3127 3127 3127 3127 3127 3127 3127 3127 3127 3128 3128 3128 3128 3128 3127 3127
3151 3151 3151 3151 3151 3150 3149 3148 3148 3147 3147 3146 3146 3146 3145 3144 3143 3143 3142 3142 3141 3141 3141 3140 3139 3139 3138 3137 3136 3135 3134 3133 3133 3132 3132 3131 3131 3130 3130 3129 3128 3128 3127 3127 3127 3127 3127 3127 3127 3127 3127 3127 3127 3126 3126 3125 3124 3124 3124 3124 3124 3124 3124 3124 3124 3124 3124 3124 3123 3123 3123 3122 3122 3122
3150 3150 3150 3150 3149 3148 3148 3147 3147 3146 3145 3145 3144 3144 3143 3142 3142 3141 3141 3140 3140 3139 3139 3139 3138 3137 3136 3135 3134 3133 3132 3132 3131 3130 3130 3129 3128 3127 3127 3126 3125 3124 3124 3124 3124 3124 3124 3124 3124 3123 3123 3123 3123 3123 3122 3122 3121 3121 3120 3120 3120 3120 3120 3120 3120 3120 3120 3119 3119 3118 3117 3116 3116 3116
3150 3150 3150 3149 3149 3148 3147 3147 3146 3145 3145 3144 3143 3143 3143 3142 3141 3141 3140 3139 3139 3138 3138 3137 3137 3136 3135 3134 3133 3132 3131 3130 3129 3129 3128 3127 3126 3125 3124 3124 3123 3122 3122 3121 3121 3121 3121 3121 3120 3120 3120 3119 3119 3119 3119 3119 3118 3118 3117 3117 3116 3116 3116 3116 3116 3116 3115 3115 3114 3113 3113 3112 3111 3111
3149 3149 3148 3148 3147 3147 3147 3146 3146 3145 3144 3143 3143 3142 3142 3141 3140 3140 3139 3139 3138 3138 3137 3136 3136 3135 3134 3132 3131 3130 3129 3128 3128 3127 3126 3125 3125 3124 3123 3122 3122 3121 3121 3120 3119 3119 3118 3117 3117 3117 3117 3116 3116 3116 3116 3115 3115 3114 3114 3113 3112 3112 3112 3111 3111 3111 3111 3110 3109 3108 3108 3107 3107 3106
3148 3148 3147 3147 3147 3146 3146 3146 3145 3144 3143 3142 3141 3141 3140 3140 3139 3138 3138 3137 3137 3136 3135 3134 3134 3133 3132 3131 3130 3129 3128 3127 3126 3125 3124 3123 3123 3122 3121 3121 3120 3119 3119 3118 3117 3117 3116 3115 3115 3114 3114 3114 3114 3113 3113 3112 3112 3111 3110 3110 3109 3109 3108 3108 3107 3106 3106 3105 3105 3104 3103 3103 3102 3101
3148 3148 3147 3147 3146 3146 3145 3145 3144 3144 3143 3142 3140 3139 3138 3138 3137 3137 3136 3135 3135 3134 3133 3132 3131 3130 3129 3128 3127 3126 3125 3124 3124 3123 3122 3121 3120 3120 3119 3118 3117 3117 3116 3116 3115 3114 3114 3113 3113 3112 3112 3112 3111 3110 3110 3109 3108 3108 3107 3107 3106 3106 3105 3104 3103 3103 3102 3101 3100 3100 3099 3099 3098 3098
3147 3147 3146 3146 3145 3145 3144 3144 3143 3143 3142 3140 3139 3138 3137 3136 3135 3135 3134 3133 3132 3131 3130 3129 3128 3127 3126 3125 3124 3123 3123 3122 3121 3120 3119 3118 3117 3117 3116 3115 3114 3113 3113 3112 3112 3111 3111 3111 3110 3110 3109 3109 3108 3107 3106 3105 3104 3104 3104 3104 3103 3102 3101 3100 3099 3099 3098 3097 3097 3096 3095 3095 3095 3094
3145 3145 3144 3144 3143 3143 3142 3142 3141 3140 3139 3138 3137 3136 3135 3134 3133 3132 3131 3131 3130 3128 3127 3126 3125 3124 3123 3122 3121 3120 3119 3118 3117 3117 3116 3115 3114 3113 3113 3112 3111 3111 3110 3110 3109 3108 3108 3107 3107 3107 3106 3105 3105 3104 3103 3102 3101 3100 3100 3100 3099 3098 3097 3096 3095 3095 3094 3093 3093 3092 3091 3090 3090 3090
3143 3142 3142 3141 3141 3141 3140 3139 3139 3137 3136 3136 3135 3134 3133 3132 3131 3130 3129 3128 3127 3126 3124 3123 3122 3121 3120 3119 3118 3117 3116 3115 3114 3113 3112 3112 3111 3111 3110 3109 3108 3108 3107 3106 3106 3105 3104 3104 3103 3103 3102 3101 3100 3100 3099 3098 3097 3096 3095 3095 3095 3094 3094 3093 3092 3091 3090 3089 3088 3087 3087 3086 3086 3085
3140 3139 3139 3139 3139 3138 3138 3137 3136 3135 3134 3133 3132 3131 3130 3129 3128 3127 3126 3125 3124 3123 3121 3120 3119 3117 3116 3115 3114 3113 3112 3111 3110 3110 3109 3108 3108 3108 3107 3106 3105 3104 3103 3103 3102 3101 3101 3100 3099 3098 3097 3097 3096 3095 3094 3094 3093 3092 3091 3090 3090 3090 3090 3089 3088 3087 3086 3085 3084 3083 3082 3082 3081 3080
3137 3137 3137 3137 3136 3136 3135 3134 3133 3131 3130 3129 3128 3127 3127 3126 3125 3124 3123 3122 3121 3119 3118 3117 3115 3114 3113 3112 3111 3110 3108 3107 3106 3106 3105 3105 3104 3104 3103 3102 3101 3100 3099 3098 3098 3097 3096 3095 3095 3094 3093 3092 3092 3091 3090 3089 3088 3087 3087 3086 3086 3085 3085 3084 3083 3082 3081 3080 3079 3079 3078 3077 3076 3075
3136 3136 3135 3135 3134 3133 3132 3131 3129 3128 3126 3125 3125 3124 3123 3122 3122 3120 3119 3118 3117 3116 3115 3113 3112 3111 3110 3108 3107 3106 3105 3103 3102 3102 3101 3101 3100 3099 3099 3098 3097 3096 3095 3094 3094 3093 3092 3091 3090 3089 3089 3088 3087 3086 3085 3084 3084 3083 3082 3082 3081 3080 3079 3078 3077 3076 3075 3075 3074 3073 3072 3072 3071 3070
3135 3134 3133 3133 3132 3131 3129 3128 3127 3125 3124 3123 3122 3121 3121 3120 3119 3118 3117 3115 3114 3113 3111 3110 3109 3108 3107 3105 3104 3103 3101 3100 3099 3098 3098 3097 3096 3096 3095 3094 3094 3093 3092 3091 3090 3089 3088 3087 3086 3085 3084 3083 3083 3082 3081 3080 3079 3079 3078 3077 3077 3076 3075 3074 3072 3071 3070 3070 3069 3068 3067 3067 3066 3065
3132 3132 3131 3131 3130 3128 3127 3126 3124 3123 3122 3121 3120 3119 3118 3117 3116 3115 3114 3112 3111 3110 3108 3107 3106 3104 3103 3102 3101 3100 3099 3097 3096 3095 3094 3093 3093 3092 3091 3090 3090 3089 3088 3087 3086 3085 3084 3083 3082 3081 3080 3079 3078 3077 3077 3076 3075 3074 3073 3073 3072 3072 3071 3070 3068 3067 3066 3065 3064 3063 3062 3061 3060 3059
3130 3130 3130 3129 3128 3126 3125 3124 3123 3122 3121 3120 3119 3117 3116 3114 3113 3111 3110 3109 3108 3106 3105 3104 3103 3101 3100 3099 3098 3097 3096 3094 3093 3092 3091 3090 3089 3088 3088 3087 3086 3085 3084 3083 3082 3081 3080 3079 3078 3076 3075 3074 3074 3073 3072 3071 3070 3070 3069 3068 3067 3067 3066 3065 3064 3063 3061 3060 3059 3058 3057 3056 3055 3054